Content
SEND FEEDBACK

Daily
Averages
Monthly
Summary
France

RENNES, FRANCE


Home > Europe > France
Elevation: 121 feet     Latitude: 48 04N     Longitude: 001 43W

WEATHER
 
SELECT A DAY
Number of Records: 236,559;   Date Range: 7/1/96 - 8/10/14
 
SHARE

PRINT THIS DATA

[ ← Previous Day ]
WEATHER ALMANAC - FEBRUARY 19, 2013
[ Next Day → ]
[ °C ]   °F
Weather ElementAverageHighLow
Temperature40.1 °F53.6 °F (3:00 pm)28.4 °F (6:30 am)
Dewpoint32.9 °F39.2 °F (2:00 pm)24.8 °F (8:00 am)
Humidity76.4 %93 % (4:00 am)54 % (3:30 pm)
Barometer30.02 in30.06 in (1:00 am)29.98 in (2:30 pm)
Wind Speed5.4 mph9.2 mph (11:00 am)
Weather ElementAverage
Visibility5.1 mi
Wind DirectionENE (79.8 °)

Weather ElementTotal
Precipitation---
Heating Degree Days24 (Base 65)
Averaged from 50 records on February 19, 2013
WEATHER CONDITIONS BREAKOUT
WIND DIRECTION BREAKOUT
WEATHER BY HOUR - FEBRUARY 19, 2013
[ °C ]   °F
Local TimeTemperatureDewpointHumidityBarometerVisibilityWind DirectionWind SpeedGust SpeedPrecipitationEventsConditions
12:30 AM33.8 °F30.2 °F87 %30.04 in6.2 miVariable2.3 mph
1:00 AM34.0 °F29.0 °F77 %30.06 in6.0 miEast (90°)4.6 mphClear
1:00 AM33.8 °F30.2 °F87 %30.04 in5.6 miEast (90°)4.6 mph
1:30 AM33.8 °F30.2 °F87 %30.04 in5.0 miEast (90°)5.8 mph
2:00 AM35.6 °F30.2 °F81 %30.04 in5.0 miEast (100°)6.9 mph
2:30 AM33.8 °F30.2 °F87 %30.04 in4.3 miEast (100°)4.6 mph
3:00 AM33.8 °F30.2 °F87 %30.04 in4.3 miVariable2.3 mph
3:30 AM33.8 °F30.2 °F87 %30.04 in4.3 miEast (90°)3.5 mph
4:00 AM32.0 °F30.2 °F93 %30.04 in3.7 miEast (100°)3.5 mph
4:30 AM32.0 °F28.4 °F87 %30.04 in3.1 miEast (90°)3.5 mphMist
5:00 AM30.2 °F28.4 °F93 %30.01 in3.1 miVariable1.2 mphMist
5:30 AM30.2 °F28.4 °F93 %30.01 inEast (90°)4.6 mphMist
6:00 AM30.2 °F28.4 °F93 %30.01 inVariable2.3 mphMist
6:30 AM28.4 °F26.6 °F93 %30.01 in2.5 miENE (60°)4.6 mphMist
7:00 AM30.2 °F28.4 °F93 %30.01 inVariable3.5 mphMist
7:30 AM30.2 °F28.4 °F93 %30.01 in3.1 miVariable3.5 mphMist
8:00 AM30.2 °F24.8 °F80 %30.04 inVariable3.5 mphMist
8:30 AM30.2 °F28.4 °F93 %30.04 inVariable2.3 mphMist
9:00 AM30.2 °F28.4 °F93 %30.04 in2.5 miENE (60°)3.5 mphMist
9:30 AM33.8 °F30.2 °F87 %30.04 in2.8 miEast (80°)3.5 mphMist
10:00 AM35.6 °F32.0 °F87 %30.04 in3.1 miEast (90°)8.1 mphMist
10:30 AM39.2 °F32.0 °F75 %30.04 in3.7 miEast (100°)8.1 mph
11:00 AM41.0 °F33.8 °F76 %30.04 in3.7 miESE (110°)9.2 mph
11:30 AM42.8 °F35.6 °F76 %30.04 in4.3 miEast (100°)8.1 mph
12:00 PM44.6 °F35.6 °F71 %30.04 in5.0 miESE (110°)9.2 mph
12:30 PM46.4 °F37.4 °F71 %30.04 in5.6 miEast (100°)6.9 mph
1:00 PM48.0 °F37.0 °F56 %30.04 in6.0 miESE (110°)8.1 mphClear
1:00 PM48.2 °F37.4 °F66 %30.01 in5.6 miESE (110°)8.1 mph
1:30 PM50.0 °F37.4 °F62 %30.01 in6.2 miEast (100°)9.2 mph
2:00 PM51.8 °F39.2 °F62 %30.01 in6.2 miESE (110°)8.1 mph
2:30 PM51.8 °F39.2 °F62 %29.98 in6.2 miESE (110°)8.1 mph
3:00 PM53.6 °F39.2 °F58 %29.98 in5.0 miESE (110°)9.2 mph
3:30 PM53.6 °F37.4 °F54 %29.98 in5.0 miESE (110°)8.1 mph
4:00 PM53.6 °F37.4 °F54 %29.98 in5.6 miEast (100°)6.9 mph
4:30 PM51.8 °F37.4 °F58 %29.98 in6.2 miESE (110°)8.1 mph
5:00 PM51.8 °F37.4 °F58 %29.98 in6.2 miESE (120°)6.9 mph
5:30 PM51.8 °F37.4 °F58 %29.98 in6.2 miEast (100°)5.8 mph
6:00 PM50.0 °F35.6 °F58 %29.98 in6.2 miESE (110°)6.9 mph
6:30 PM48.2 °F35.6 °F62 %29.98 in6.2 miESE (120°)4.6 mph
7:00 PM45.0 °F35.0 °F59 %30.01 in10.0 miEast (90°)5.8 mphClear
7:00 PM44.6 °F35.6 °F71 %29.98 in6.2 miEast (90°)5.8 mph
7:30 PM44.6 °F35.6 °F71 %30.01 in6.2 miEast (80°)5.8 mph
8:00 PM44.6 °F33.8 °F66 %30.01 in6.2 miEast (90°)4.6 mph
8:30 PM42.8 °F33.8 °F70 %30.01 in6.2 miEast (80°)4.6 mph
9:00 PM41.0 °F33.8 °F76 %30.01 in6.2 miEast (90°)4.6 mph
9:30 PM41.0 °F33.8 °F76 %30.01 in6.2 miVariable2.3 mph
10:00 PM39.2 °F33.8 °F81 %30.01 in5.6 miEast (100°)2.3 mph
10:30 PM37.4 °F32.0 °F81 %30.01 in5.0 miSouth (170°)1.2 mph
11:00 PM35.6 °F32.0 °F87 %30.04 in4.3 miENE (60°)2.3 mph
11:30 PM33.8 °F30.2 °F87 %30.01 in3.7 miENE (70°)6.9 mph
Hourly data recorded from LFRN, located miles away from Rennes, France







STORIES FROM OUR PARTNERS